Temp
24 23 23 22 22 22 21 21 21 21 21 21 21 20 20 20 20 20 20 19 19 19 19 19 19 19 19 19 19 19 19 19 19 19 19 19 19 19 19 19 19 19 19 18 18 18 18 18 18 18 18 18 18 19 19 19 19 19 19 19 19 19 19 20 20 20 21 22 22 23 24 24 24 24 24 24 24 24 24 24 24 24 24 24 24
24 23 23 22 22 22 22 21 21 21 21 21 21 21 21 21 20 20 20 20 19 19 19 19 19 19 19 19 19 19 19 19 19 19 19 19 19 19 19 18 18 18 18 18 18 18 18 18 18 18 19 19 19 19 19 20 19 19 20 20 19 19 20 20 20 20 21 21 22 23 23 24 24 24 24 23 23 24 24 23 24 24 24 24 24
24 23 23 22 22 22 22 21 21 21 21 21 21 21 22 21 21 20 20 20 20 19 19 19 19 19 19 19 19 19 19 19 19 19 19 19 19 18 18 17 17 18 18 18 18 17 17 17 17 18 18 19 19 19 19 19 19 20 20 20 19 19 19 20 20 21 22 22 22 23 23 24 24 24 24 24 23 24 23 22 23 24 24 24 24
24 23 23 22 22 22 22 22 22 22 22 22 22 22 22 22 22 21 20 20 20 19 19 19 19 19 19 19 19 19 19 19 19 19 19 19 18 18 17 17 17 18 18 17 17 17 17 16 17 17 17 18 19 19 19 19 19 19 20 20 20 19 19 20 20 21 22 23 23 23 23 24 24 24 24 24 23 23 22 22 23 24 24 25 24
24 24 23 23 23 22 22 22 22 22 22 22 22 22 22 22 21 21 21 20 20 20 20 20 19 19 20 19 19 19 19 19 19 19 19 19 18 18 18 17 17 18 17 17 17 17 16 16 16 16 16 17 18 19 19 19 19 19 20 20 20 19 19 20 21 21 21 22 22 22 23 23 24 24 24 24 23 23 22 22 23 23 24 24 24
24 24 23 24 23 22 22 22 22 22 22 22 22 22 22 21 21 21 21 21 21 21 21 20 20 20 20 20 20 20 20 19 19 19 19 18 18 18 18 17 17 17 17 16 16 16 16 15 15 15 16 16 17 18 18 19 19 19 20 20 20 20 19 20 20 20 20 21 22 22 23 23 23 23 23 23 23 23 23 22 22 23 22 23 23
24 23 23 24 23 23 23 22 22 22 22 22 22 21 21 21 21 21 21 21 21 21 21 21 20 20 20 20 20 20 20 19 19 19 18 18 18 18 17 17 17 17 16 16 16 16 16 15 15 15 15 15 15 16 18 19 19 19 19 20 20 20 19 20 20 20 20 20 21 21 22 23 23 23 23 23 23 22 23 22 22 22 21 22 23
23 23 23 23 23 23 23 23 22 22 22 22 21 21 21 21 20 20 21 21 21 21 21 21 21 21 20 20 20 20 20 19 19 18 18 18 18 18 17 17 17 17 16 16 16 16 15 14 14 14 14 14 14 15 16 18 19 19 19 19 19 19 19 20 21 21 20 20 21 21 21 22 22 23 23 23 22 22 22 22 23 22 22 22 22
23 23 23 23 23 23 23 22 22 22 22 22 21 21 21 20 20 21 21 21 21 21 21 21 21 21 21 20 20 20 20 19 19 18 18 17 17 17 17 17 17 16 16 16 16 15 14 14 14 14 14 14 14 14 15 16 17 17 18 18 18 19 19 20 21 21 21 21 21 21 21 22 22 22 23 23 22 22 22 22 22 22 22 22 22
23 23 23 23 23 23 23 22 22 22 22 22 21 21 21 20 21 21 21 21 21 21 21 20 21 21 21 20 20 20 20 19 19 18 18 17 17 17 17 17 17 16 16 16 15 15 14 14 14 14 14 14 14 14 15 15 16 16 16 17 18 18 19 20 20 21 20 21 21 21 22 22 22 22 23 23 23 23 22 22 22 22 23 23 22
23 23 23 23 23 23 23 22 22 22 22 21 21 21 21 21 21 21 21 21 21 21 21 21 21 21 21 21 20 20 20 19 19 18 17 17 17 17 17 17 17 16 16 16 15 14 14 14 14 14 13 14 14 14 14 14 15 16 16 16 16 17 18 19 19 20 20 21 21 21 22 22 22 23 23 23 23 23 23 22 22 22 23 22 22
24 24 24 23 23 23 23 23 22 22 22 22 21 21 21 21 21 21 21 21 21 21 21 21 21 21 21 21 20 20 20 19 19 18 17 17 17 16 16 17 17 17 16 16 15 14 14 14 14 13 13 13 14 14 14 14 14 15 16 16 16 17 17 18 19 19 20 20 21 21 21 22 22 23 23 23 23 23 23 22 22 22 23 23 23
24 24 24 24 24 23 23 23 23 22 22 22 21 21 21 21 21 21 22 22 21 21 21 21 21 21 21 21 20 20 20 19 18 18 17 17 17 17 16 17 17 17 16 16 15 15 14 14 14 13 13 13 13 14 14 13 13 13 15 16 16 16 17 18 18 19 19 20 20 20 21 21 22 22 22 23 23 23 23 23 22 22 22 23 23
25 24 24 24 24 23 23 23 23 22 22 22 21 21 21 21 21 21 22 22 21 21 21 21 21 21 21 21 21 20 20 19 18 18 18 17 17 17 17 17 17 17 16 16 15 15 14 14 14 14 13 13 13 13 13 12 12 12 13 14 15 16 17 17 18 18 19 19 20 20 20 21 21 22 22 22 23 23 23 22 22 22 22 22 22
25 24 24 24 24 23 23 23 23 22 22 22 22 21 21 22 22 21 22 22 22 21 21 21 21 21 21 21 21 21 20 20 19 18 18 17 18 17 17 17 17 17 17 16 15 15 15 14 14 14 14 14 14 13 13 12 12 12 13 13 13 14 16 17 18 18 19 19 19 20 20 20 21 21 22 22 22 22 22 22 22 22 22 22 22
25 25 25 24 24 24 23 23 23 23 22 22 22 22 22 22 22 22 22 21 21 22 21 22 22 21 21 20 21 21 21 20 19 19 18 18 18 17 17 17 17 17 17 16 15 16 16 15 14 14 14 14 14 14 13 13 12 12 13 14 14 14 15 17 18 18 18 19 19 19 20 20 20 21 21 21 21 21 22 22 22 21 21 21 21
25 25 25 25 24 24 24 23 23 23 23 23 22 22 22 22 22 22 22 21 22 22 22 22 21 20 19 19 19 19 20 20 20 19 18 18 18 17 18 18 18 17 17 16 16 16 16 16 15 15 14 14 14 14 14 13 12 12 13 13 14 14 15 17 18 19 19 19 19 19 19 20 20 20 20 20 20 21 22 22 22 22 21 21 21
25 25 25 25 24 24 24 23 23 23 23 23 22 22 22 22 22 22 21 21 21 21 20 20 20 19 19 19 19 18 19 20 20 19 19 18 18 18 18 18 18 17 17 16 16 16 16 16 16 15 15 15 15 15 14 13 12 12 12 13 14 14 15 17 18 19 19 18 18 18 18 19 19 20 20 20 20 20 21 21 22 22 22 21 21
25 25 25 25 24 24 24 23 23 23 23 23 23 22 21 21 21 21 21 20 20 19 19 19 18 18 19 19 19 19 18 18 19 19 19 19 18 18 17 18 18 18 17 17 16 16 16 16 16 16 15 15 15 15 14 13 12 12 12 13 13 14 14 16 19 19 19 18 18 18 18 18 18 19 19 19 20 20 20 20 21 22 22 22 22
26 25 25 25 24 24 23 23 23 23 23 23 22 21 20 21 21 20 20 20 20 19 19 19 18 18 18 18 18 18 18 18 19 20 19 19 19 18 17 17 18 18 17 17 16 16 16 16 16 16 15 15 15 15 14 14 13 12 12 12 12 12 13 15 18 19 19 18 18 18 18 18 18 19 18 18 19 19 20 20 21 21 21 22 22
25 25 25 24 24 23 23 23 23 23 22 21 21 21 20 20 21 20 20 20 19 19 19 18 18 18 18 18 17 17 18 19 20 20 19 19 19 18 17 17 17 18 17 16 16 16 16 16 16 16 15 15 15 15 15 14 13 13 13 13 12 12 13 14 16 19 19 18 18 18 18 18 18 19 19 18 18 18 19 20 20 21 21 21 22
25 24 24 23 23 23 23 23 23 22 21 20 20 20 20 20 21 20 20 19 19 18 18 18 18 18 18 18 18 18 18 18 18 19 19 19 19 18 18 17 17 17 16 16 16 16 16 16 16 15 15 15 15 15 15 14 13 13 13 13 13 13 13 14 16 17 18 18 18 18 18 18 18 18 19 19 19 18 19 20 20 20 21 21 22
24 23 23 23 23 23 22 22 22 22 21 20 21 20 20 20 20 20 19 19 19 19 18 18 18 18 18 18 18 18 17 16 17 18 18 18 19 18 18 18 18 17 16 15 16 16 16 17 16 15 16 15 14 15 15 15 14 14 13 13 13 13 13 14 15 17 18 18 18 18 18 18 18 18 18 19 19 19 19 20 20 20 20 21 21
23 23 23 22 22 22 22 22 22 21 21 20 20 20 20 20 20 19 19 19 19 19 18 18 18 18 18 18 18 17 17 16 17 18 18 17 18 18 18 18 18 17 17 16 16 16 16 16 16 16 16 15 14 15 15 15 15 15 14 13 13 13 13 14 14 15 16 17 18 18 18 18 18 18 18 19 19 19 19 19 19 20 20 20 20
22 22 22 22 22 22 22 22 21 21 21 20 20 20 20 20 20 19 19 19 19 19 19 18 18 18 18 18 17 17 17 17 18 18 17 17 17 17 18 18 18 18 17 17 17 16 17 17 16 16 16 15 15 15 15 15 15 15 14 13 13 13 13 13 13 14 14 15 15 16 17 17 18 18 18 18 18 18 18 18 18 19 19 20 20
22 22 22 22 22 21 21 21 21 20 20 20 20 20 20 20 20 19 19 19 19 19 19 18 18 18 19 18 17 17 17 17 17 17 16 16 16 16 17 18 18 18 18 17 17 17 17 17 16 15 16 15 15 14 15 15 15 15 14 14 13 13 13 13 13 13 13 13 13 13 14 15 16 17 18 18 18 18 18 18 18 18 18 19 19
22 22 22 22 21 20 20 20 20 20 20 20 20 20 20 19 19 19 20 20 20 19 19 19 19 19 18 18 17 17 18 17 16 15 15 15 15 16 16 17 17 17 18 18 17 17 17 17 16 15 15 15 15 14 14 15 15 15 14 14 13 13 14 13 13 13 13 13 13 13 13 14 14 15 16 16 17 17 18 18 18 18 18 18 18
22 22 22 21 20 20 20 19 20 20 20 20 20 20 20 18 18 18 19 19 19 19 19 19 19 18 18 18 17 18 18 17 15 13 13 14 15 16 15 15 16 17 17 17 17 17 17 17 16 16 16 15 15 15 14 14 14 14 14 14 14 14 14 14 13 13 13 13 13 13 13 13 14 14 14 14 15 16 17 17 17 17 17 17 17
21 21 21 21 20 20 20 20 20 20 19 19 19 19 18 18 17 17 17 17 17 17 17 18 18 17 18 17 16 16 16 14 12 12 13 14 14 15 14 15 16 17 17 17 17 17 17 18 17 16 16 16 15 15 15 14 14 14 14 14 14 14 14 13 13 13 13 13 13 13 13 13 13 14 14 14 14 15 16 16 16 17 17 17 17
20 21 21 21 20 20 20 20 20 19 19 19 19 18 17 16 16 16 15 16 16 15 15 16 15 15 16 15 13 12 12 11 11 12 13 13 13 13 13 14 15 16 16 16 16 17 17 17 16 15 15 15 15 14 14 13 13 13 13 13 13 13 13 13 13 14 14 13 13 13 13 13 13 13 14 14 14 14 14 15 15 15 15 15 15
20 21 21 21 20 20 20 20 19 19 18 18 18 18 17 15 14 14 14 14 14 13 13 13 13 13 13 13 12 11 11 11 11 11 12 13 13 12 13 13 14 15 15 16 16 16 16 16 15 14 14 14 13 13 13 13 12 11 11 12 11 11 12 13 13 14 14 14 13 13 13 13 13 13 13 13 14 14 14 14 14 14 14 14 14
20 21 21 20 19 19 19 19 19 19 19 18 18 18 16 14 12 12 12 12 12 12 11 11 11 11 11 11 11 11 11 11 11 11 11 12 12 12 13 13 14 14 14 14 15 14 13 14 13 13 12 13 12 12 12 12 11 11 10 10 10 10 10 11 12 13 13 13 13 13 13 13 13 13 13 13 14 14 14 14 14 14 14 13 13
20 21 20 20 19 18 19 19 18 18 18 18 17 16 15 13 12 11 11 11 11 11 11 11 11 10 10 10 11 11 11 12 12 12 11 11 12 12 12 12 13 14 13 12 12 12 12 12 12 11 11 11 11 11 11 11 11 10 10 9 9 9 9 10 10 11 12 12 13 13 13 13 14 13 14 14 14 13 13 13 14 14 14 13 13
20 20 19 19 19 19 19 19 18 18 18 17 17 16 15 14 13 12 11 11 11 10 10 10 10 10 10 10 10 10 11 11 12 11 11 11 11 12 12 11 12 12 11 10 10 10 10 10 10 10 10 10 9 9 9 9 10 10 10 9 9 9 9 9 9 9 10 11 11 12 12 13 13 13 14 14 14 14 13 13 14 14 14 14 14
19 19 18 18 19 19 19 18 18 18 17 16 16 16 15 15 14 13 12 13 13 12 12 11 11 10 10 9 9 10 10 10 11 11 11 11 11 12 12 12 11 10 9 9 9 9 9 9 9 8 8 8 9 8 8 8 8 9 9 9 9 9 9 9 9 9 9 10 10 11 11 12 13 13 13 14 14 14 14 13 13 14 14 14 14
19 19 18 18 18 18 18 17 17 16 16 15 15 15 14 14 13 13 13 13 14 14 14 13 12 11 10 9 9 10 10 9 10 10 10 10 10 11 12 12 11 10 9 8 8 8 8 7 7 7 7 7 7 8 8 8 8 8 8 9 9 8 8 9 9 9 10 10 10 10 11 11 12 12 13 13 14 14 14 14 14 14 14 14 14
19 20 19 18 18 17 17 16 15 15 14 14 13 13 13 12 12 13 13 14 14 14 14 13 13 12 12 10 10 10 10 10 9 9 9 9 9 10 10 9 9 8 8 7 7 7 6 6 5 5 6 6 6 6 6 7 7 7 8 8 8 8 8 8 8 9 10 11 10 10 11 11 11 11 12 12 13 13 14 14 14 14 14 14 14
18 19 18 18 17 16 16 15 14 13 13 13 13 12 12 11 11 12 12 13 13 14 14 13 12 12 11 10 10 11 11 10 10 10 10 9 9 9 8 7 7 7 7 6 5 6 6 5 5 5 5 5 5 5 5 5 6 6 7 7 8 8 8 8 8 8 10 11 11 11 11 11 11 11 11 12 12 13 13 14 14 14 14 14 14
17 17 16 16 16 16 15 15 14 13 13 13 12 12 11 11 11 11 11 12 12 12 12 12 11 10 9 8 9 11 11 11 10 10 9 9 9 8 7 7 7 7 6 6 5 5 5 5 5 5 4 4 4 4 4 4 4 5 5 6 7 7 7 7 7 7 8 9 10 10 10 11 11 11 12 12 12 13 13 13 14 14 14 14 14
17 16 15 15 15 15 14 14 13 13 13 12 12 12 12 11 11 11 11 11 11 11 11 10 9 8 7 7 8 9 10 9 9 8 8 8 8 7 7 6 7 7 6 6 5 5 5 6 6 5 5 4 4 4 4 3 4 4 4 5 5 5 6 6 5 6 6 7 8 9 9 9 10 11 11 11 12 13 13 13 14 14 14 14 14
16 15 14 14 14 14 14 13 13 12 12 12 12 12 11 11 11 12 12 12 11 10 9 8 8 7 6 6 7 8 8 8 8 7 7 7 7 7 6 5 5 5 6 6 5 5 6 6 6 6 5 5 4 5 4 4 4 4 4 4 4 4 4 4 4 4 5 6 7 7 8 8 10 10 10 10 11 12 12 13 14 14 15 14 14
15 14 13 13 13 13 12 12 12 11 12 12 12 11 11 11 12 13 13 12 11 10 9 8 7 6 6 6 6 7 7 7 7 7 7 7 6 6 5 5 4 4 5 6 5 5 6 6 6 5 5 4 4 5 5 5 4 4 4 4 4 3 4 4 3 3 4 5 6 7 7 8 9 10 10 10 10 11 11 12 12 13 14 14 14
14 13 13 13 12 12 11 11 11 11 11 12 12 12 12 12 12 12 12 12 11 10 9 8 7 7 6 5 6 7 7 7 7 6 6 6 6 5 5 5 4 4 5 5 5 5 6 6 5 5 5 4 4 4 4 4 4 4 4 4 3 3 2 3 3 2 3 3 4 6 7 8 9 10 10 10 11 11 11 11 10 10 11 12 14
13 13 12 12 11 11 11 11 11 11 11 11 11 11 11 12 12 12 12 12 11 10 9 8 8 7 7 6 7 7 7 6 6 5 6 6 6 6 5 5 4 4 4 4 4 4 5 5 5 5 4 4 4 4 4 4 4 4 3 3 3 2 2 2 2 2 2 2 3 5 7 8 9 9 9 10 10 11 11 10 10 10 10 11 12
14 13 13 13 12 12 12 12 12 12 11 12 11 11 11 11 11 11 11 10 9 9 8 8 8 7 7 7 7 7 7 6 5 5 6 6 6 5 5 5 4 4 4 4 4 4 4 4 5 5 4 4 4 4 3 3 3 3 3 2 2 2 1 1 1 1 2 2 3 4 6 7 8 8 8 9 9 10 10 10 10 10 9 9 10
15 14 14 13 13 12 12 12 12 12 12 12 12 12 11 10 10 10 10 9 9 9 8 8 8 7 7 7 7 7 7 7 6 6 6 5 5 6 6 6 5 5 5 5 5 5 4 4 5 4 4 4 4 3 3 3 3 3 2 2 1 1 2 1 1 1 2 2 3 4 5 6 7 7 7 8 8 9 9 9 9 9 9 8 8
14 14 14 13 13 12 11 11 10 11 11 11 11 12 12 10 9 9 9 8 9 9 9 9 8 8 8 8 8 8 8 8 8 8 7 6 6 6 7 6 6 6 5 5 5 5 5 4 4 4 4 4 3 3 3 3 3 2 2 1 1 2 3 2 2 1 2 2 3 4 5 6 6 6 6 7 8 8 8 9 9 9 8 8 7
13 13 13 13 12 12 11 11 10 10 11 10 10 11 11 10 9 8 8 8 9 9 9 9 8 8 8 9 9 8 8 8 9 8 8 7 7 6 5 5 6 6 6 5 5 5 4 4 4 4 4 3 3 3 3 3 2 1 1 1 1 2 3 3 2 2 2 3 4 5 5 5 6 6 6 6 7 7 8 8 8 8 8 8 7
13 13 13 12 12 12 11 11 11 12 12 11 11 11 10 10 10 9 9 9 9 9 9 9 8 8 8 8 9 9 8 8 8 8 8 7 6 6 5 5 5 5 5 5 5 4 4 4 4 4 4 3 3 3 3 2 1 1 0 1 1 2 2 3 3 3 3 3 4 5 5 5 5 6 6 6 6 7 7 7 7 7 7 7 7
13 13 13 13 13 12 12 12 12 12 12 12 11 11 10 10 10 10 9 9 9 9 9 9 9 9 9 9 8 8 8 8 8 8 7 7 6 6 5 5 5 5 5 5 5 4 4 4 4 4 3 3 3 3 3 2 1 0 1 1 1 2 2 2 3 3 3 3 3 4 5 5 5 5 5 5 6 6 6 6 6 7 7 7 7
12 12 12 12 12 12 12 12 12 11 11 11 11 10 10 10 10 9 9 9 9 9 9 8 9 9 9 8 8 7 7 7 7 7 7 6 6 6 5 5 5 5 5 5 5 4 4 4 4 4 3 3 3 3 2 1 1 1 1 1 1 1 2 2 2 3 3 3 3 4 4 4 5 5 5 4 5 5 6 6 6 7 7 7 7
Height
823 823 823 823 823 823 823 823 824 824 824 824 824 823 823 822 821 820 819 818 818 817 816 815 815 814 813 812 810 809 808 806 805 803 802 801 800 799 798 796 795 792 791 789 786 784 781 778 776 774 773 770 768 766 765 764 764 763 763 764 765 766 764 764 762 759 758 761 764 764 764 763 763 763 765 767 767 768 768 769 769 769 770 771 772
821 822 822 822 822 821 822 822 822 822 822 822 822 821 821 820 820 819 818 817 816 816 815 814 813 813 811 811 809 808 806 805 804 802 801 800 799 798 797 795 793 791 789 787 784 781 777 774 771 768 767 765 762 762 760 759 759 758 758 758 759 760 759 758 758 756 755 757 759 760 760 761 761 761 763 764 765 765 765 767 767 767 767 767 769
820 820 820 820 820 820 821 820 821 821 821 821 820 820 819 818 818 818 817 816 815 814 813 812 812 811 810 809 808 807 805 803 802 801 800 799 798 797 796 793 791 789 786 784 781 778 774 770 767 764 762 759 757 756 755 754 753 753 753 753 753 755 756 753 752 752 752 753 755 756 756 757 758 759 760 762 762 762 763 765 765 764 764 764 765
818 819 819 819 819 819 819 819 819 819 819 819 818 818 817 816 816 816 815 814 813 813 812 811 810 809 808 807 806 805 804 802 801 800 799 798 797 795 793 791 789 786 784 781 778 775 772 768 765 762 758 755 752 750 749 749 749 748 748 748 748 750 751 748 746 748 749 749 751 752 753 753 754 755 757 758 758 758 760 762 762 762 761 761 762
817 817 817 817 818 818 818 818 818 818 817 817 817 816 815 815 815 814 813 812 811 811 810 809 808 806 805 805 804 803 802 801 799 798 797 796 795 793 792 790 787 785 782 779 776 773 770 766 763 760 756 752 748 746 744 743 744 744 743 743 743 744 744 742 742 743 745 745 747 748 750 750 751 751 753 754 754 755 757 758 758 759 759 758 759
815 815 816 816 816 816 816 816 816 816 816 816 815 815 814 814 813 812 811 810 809 808 807 806 805 804 803 802 802 801 800 799 798 797 796 795 793 792 790 787 785 783 780 777 774 771 768 764 761 757 754 749 745 741 739 738 738 738 738 738 739 739 739 738 738 739 740 742 743 745 746 747 747 747 749 750 751 751 753 753 754 755 756 756 756
813 814 814 814 814 815 815 815 815 815 815 814 814 813 813 812 812 811 810 809 807 806 805 804 803 802 801 800 799 798 797 796 795 795 794 793 791 790 788 785 783 781 778 776 773 770 766 763 759 755 752 748 742 737 734 732 733 733 733 734 734 735 735 735 734 735 737 738 740 742 742 743 743 743 745 746 747 748 749 750 750 752 753 754 754
811 812 812 812 813 813 813 813 813 813 813 812 812 811 811 811 810 809 808 806 805 804 803 801 800 799 798 797 796 796 795 794 793 792 792 791 790 788 786 784 781 779 777 775 772 768 765 761 757 754 750 745 740 735 731 729 728 728 729 730 730 730 731 732 730 730 732 734 736 738 739 740 740 740 741 743 743 743 745 746 746 747 750 751 751
809 810 810 810 811 811 811 812 811 811 811 810 810 809 809 809 808 807 806 804 803 802 800 799 798 796 796 795 794 793 793 792 791 790 790 789 788 787 785 782 780 777 775 773 770 767 763 759 755 752 748 743 738 732 729 727 726 726 725 726 726 725 726 727 726 726 727 729 731 733 734 735 735 736 737 738 738 739 741 743 743 744 747 747 748
807 808 808 808 809 809 809 810 809 809 809 809 808 807 807 807 805 804 803 802 801 800 799 797 796 794 793 792 791 790 790 790 789 788 787 787 786 785 783 781 778 776 774 771 768 765 761 757 753 750 746 741 735 730 727 726 724 723 722 721 722 722 721 721 721 722 723 723 725 728 729 729 730 732 733 734 735 736 738 740 740 741 743 743 744
804 805 805 806 807 807 807 807 807 807 807 807 806 805 805 804 803 802 801 799 799 798 797 795 794 792 791 790 789 788 788 787 786 786 786 785 784 783 781 779 776 775 773 770 767 763 759 756 752 747 743 739 734 730 727 724 722 720 718 716 717 717 716 716 717 718 719 719 720 722 723 724 725 728 729 731 732 732 734 736 736 737 739 740 740
802 802 803 804 804 804 805 805 805 805 804 804 803 803 802 801 800 800 798 797 796 795 794 793 792 790 789 788 787 786 785 785 784 784 784 783 782 780 779 777 775 773 772 769 766 763 759 755 751 747 744 739 735 731 726 722 718 715 713 711 711 712 712 712 713 714 714 714 716 717 718 719 721 723 726 727 728 729 730 732 732 732 734 736 736
799 800 800 801 801 802 803 802 802 802 801 801 801 800 800 799 798 797 795 794 794 793 792 791 789 788 787 786 785 784 783 783 782 782 782 781 780 778 776 775 773 772 770 767 765 762 758 755 751 747 744 740 736 732 728 722 717 712 708 706 705 705 706 707 708 709 710 710 711 712 713 715 717 719 721 723 725 725 726 727 727 727 729 731 732
796 797 798 799 799 799 800 799 799 799 799 799 798 797 797 796 795 794 793 792 791 791 790 788 787 786 785 784 783 782 781 781 780 780 779 778 777 775 774 773 771 769 768 766 763 760 757 754 750 746 742 739 736 732 728 723 718 711 707 703 701 699 700 700 702 703 705 706 706 707 708 710 712 715 718 720 721 721 722 722 722 723 725 727 729
793 794 795 796 796 797 797 796 796 796 796 796 796 795 795 794 793 792 791 790 789 788 787 786 784 783 782 781 780 779 778 778 777 777 776 775 774 773 772 770 768 767 766 764 761 758 755 752 748 744 741 737 734 731 727 723 718 712 706 702 698 695 693 693 694 696 697 699 700 702 703 706 708 711 713 716 716 717 718 719 719 720 723 725 727
790 791 792 793 794 794 794 794 794 793 794 794 793 793 792 791 791 790 789 788 787 786 785 783 782 781 781 780 779 777 776 775 774 774 773 772 772 771 770 768 766 764 763 761 759 756 753 750 746 743 739 736 732 729 726 722 716 711 705 699 695 691 687 685 686 688 690 691 694 696 699 702 705 707 710 712 713 714 715 716 717 718 721 724 725
787 788 789 790 791 791 791 791 791 791 791 790 790 790 790 789 789 788 787 787 785 784 783 782 781 781 780 780 779 777 775 772 771 771 771 770 769 769 767 766 764 762 760 759 756 754 751 747 744 741 738 735 732 728 724 720 715 710 704 697 692 687 682 679 679 681 683 685 688 691 694 698 701 703 706 709 710 711 712 712 713 715 718 720 722
785 786 787 787 788 788 788 788 788 788 788 788 787 788 788 788 787 787 787 786 785 784 783 782 782 781 780 779 778 776 774 772 769 768 768 768 767 766 765 763 761 760 758 756 754 751 748 745 742 740 737 734 731 727 724 719 714 709 703 696 690 683 678 675 674 674 677 681 684 687 690 693 697 699 703 705 707 709 710 710 710 712 714 716 718
781 782 784 784 785 785 786 786 786 786 785 785 785 785 786 786 786 786 785 785 784 784 783 782 781 781 780 779 777 775 773 771 768 766 765 765 765 764 763 761 759 757 755 753 751 748 746 743 740 739 736 733 730 726 722 719 714 708 701 695 689 681 675 672 670 669 672 675 678 682 685 688 692 695 698 701 703 705 706 708 709 710 711 712 714
778 779 781 781 782 783 783 784 784 784 783 783 782 783 783 784 784 784 783 783 782 781 780 779 778 778 777 777 776 774 772 769 766 764 763 763 763 762 761 760 757 755 753 751 749 746 744 741 738 737 735 732 728 724 721 718 713 706 700 694 687 678 671 667 665 665 667 670 673 676 679 683 687 690 693 696 699 700 702 704 706 707 708 709 709
776 777 778 779 780 781 781 781 781 781 782 781 780 780 781 781 782 781 781 780 779 779 778 777 776 774 774 774 774 773 770 767 764 762 762 761 761 760 759 758 756 754 751 750 748 745 742 740 737 736 734 731 728 724 720 717 712 706 699 693 685 674 665 660 660 662 663 665 668 671 674 677 681 684 687 690 693 695 698 699 701 703 704 705 705
773 775 776 777 778 778 779 779 779 779 780 779 779 778 778 778 779 778 779 778 777 776 776 775 774 773 772 771 770 768 767 765 763 761 760 759 759 758 757 756 755 753 750 748 746 743 741 738 736 735 733 730 727 724 720 716 710 704 699 691 681 671 660 655 656 658 659 661 664 667 669 671 674 677 680 683 686 689 692 694 696 698 699 700 701
771 772 773 775 775 776 777 776 777 778 778 777 776 776 776 776 776 776 776 776 775 774 773 772 772 771 770 769 767 766 766 766 763 759 758 757 757 756 756 755 753 752 749 747 745 742 740 737 735 734 732 730 727 725 721 715 709 703 697 690 681 672 662 656 655 656 657 659 661 663 664 667 670 672 675 677 680 683 686 688 691 693 695 696 697
768 769 771 773 773 774 775 775 775 776 776 775 774 774 774 775 774 774 774 774 774 773 771 771 770 769 768 767 765 764 765 764 761 757 756 756 755 755 754 753 752 750 748 746 743 741 739 737 735 733 732 729 727 724 721 716 710 704 698 691 684 677 668 661 659 657 657 658 659 660 661 663 665 668 670 673 676 679 681 684 687 689 691 693 694
765 768 770 771 771 773 774 774 775 775 774 774 773 772 773 773 773 773 773 772 771 771 770 769 769 768 767 765 763 762 762 762 759 756 755 755 754 753 752 751 750 749 747 744 742 740 739 736 734 733 731 729 726 724 721 717 712 706 701 695 689 682 675 670 667 663 661 662 663 661 660 662 663 665 668 670 673 675 677 680 683 686 688 690 692
764 767 769 769 770 772 773 773 774 774 774 773 772 771 771 771 771 771 771 770 769 768 768 767 767 766 765 763 762 761 761 761 759 757 756 754 753 752 750 749 749 748 745 743 741 739 738 736 734 732 730 728 726 724 721 718 714 709 704 698 693 688 683 678 675 672 670 670 669 666 663 663 663 664 666 668 670 672 674 677 680 682 685 687 688
763 766 767 768 770 771 772 772 773 773 773 772 770 770 769 770 770 770 769 768 767 766 766 765 764 764 763 762 762 761 760 759 758 757 755 753 752 750 749 748 748 746 744 742 740 738 737 735 733 732 730 728 726 724 722 719 715 711 707 701 696 692 688 686 684 681 677 675 674 672 668 666 665 665 665 667 669 671 672 674 677 679 682 685 686
763 765 766 768 769 770 771 771 771 771 771 770 769 768 768 768 769 769 768 766 765 765 764 764 763 763 762 761 761 760 759 758 758 756 754 752 750 749 748 748 747 745 744 741 739 737 736 734 733 731 729 727 726 724 722 719 716 713 709 705 700 696 692 689 686 683 681 680 680 677 673 670 670 670 669 668 669 671 672 673 676 678 680 683 684
763 765 766 767 769 769 769 770 769 769 769 768 768 767 767 767 767 767 767 765 764 764 764 763 763 763 762 761 761 760 759 759 758 756 754 751 750 748 747 746 745 744 743 741 738 736 735 733 732 731 729 728 726 724 723 721 718 715 711 708 705 701 697 693 689 686 684 684 683 681 677 675 676 676 675 673 673 674 674 675 676 677 678 681 682
763 764 765 766 766 766 767 767 767 768 767 766 766 766 766 766 766 765 765 764 763 763 763 763 763 762 762 762 761 761 761 759 758 755 753 751 750 748 747 746 745 743 742 740 738 736 734 733 732 732 731 730 728 726 725 723 720 717 714 711 708 706 703 700 696 692 689 687 686 684 683 682 682 681 680 679 679 679 678 678 678 678 679 681 683
761 762 763 764 764 764 765 765 765 766 765 765 765 765 765 765 765 764 764 764 763 763 763 762 762 762 762 762 762 761 761 759 757 755 753 751 750 749 747 746 744 743 742 740 739 737 735 734 734 734 733 732 730 729 727 725 723 721 718 714 712 709 707 704 701 697 694 692 691 690 688 687 687 687 686 685 685 684 684 683 683 684 684 685 686
759 760 761 762 763 764 765 764 764 764 764 764 764 764 765 765 764 764 764 764 764 764 764 763 763 762 762 762 761 761 760 758 756 755 753 751 750 749 748 746 744 743 742 740 739 739 738 737 737 736 735 734 733 732 730 728 727 725 722 718 716 713 711 709 706 703 701 700 699 697 694 692 691 691 691 690 690 690 689 689 690 690 690 691 691
758 759 760 761 762 763 763 762 762 762 762 762 763 763 764 763 762 763 765 765 765 766 765 764 763 763 762 761 761 760 760 758 756 754 752 751 750 749 748 746 745 743 741 741 741 742 741 740 740 739 739 738 736 735 733 731 730 728 726 723 721 718 716 714 711 708 707 707 706 703 701 699 697 696 695 695 694 695 695 695 695 695 695 695 696
758 758 759 760 761 761 761 761 761 760 761 761 762 762 763 761 760 762 765 765 765 766 765 764 763 763 762 761 761 761 760 758 756 754 752 751 751 749 748 747 746 744 743 744 745 745 744 744 743 742 742 741 739 738 736 734 732 731 729 727 725 722 719 717 714 712 711 711 711 709 706 704 703 702 701 700 700 700 700 699 699 699 699 700 700
757 757 758 759 759 759 759 759 759 759 760 761 761 761 762 760 760 761 763 763 763 764 764 764 763 762 762 762 762 761 760 758 756 755 753 752 751 751 750 749 748 747 746 747 748 748 747 747 746 745 745 743 742 741 739 737 735 733 731 730 727 725 722 719 717 716 715 715 715 713 711 709 708 708 707 706 705 705 704 704 704 704 704 703 703
755 755 756 757 758 758 758 759 759 759 760 761 761 761 761 761 760 761 762 762 762 762 762 762 762 762 762 762 762 761 760 759 758 756 754 752 752 751 751 751 751 751 751 751 751 751 750 749 749 748 747 746 744 743 741 740 738 736 734 732 730 728 725 723 721 720 719 719 718 716 715 713 712 711 711 710 708 708 708 708 707 707 707 707 706
754 754 754 756 757 757 758 759 759 759 760 761 761 762 762 762 761 761 762 763 762 761 762 763 763 762 762 763 763 762 761 760 759 757 756 754 753 753 753 754 754 755 755 754 754 754 753 753 752 750 749 748 746 745 743 742 740 739 737 735 733 731 729 727 725 724 723 722 721 720 719 718 716 715 714 713 712 711 710 710 710 710 710 709 709
753 753 754 755 756 757 758 759 759 760 760 761 762 762 763 762 762 763 764 764 763 762 762 763 763 763 764 764 763 763 762 761 760 759 758 757 756 756 756 757 758 758 758 757 757 756 756 755 754 752 751 750 748 747 746 744 743 741 739 737 736 734 732 730 728 727 726 725 724 723 722 721 720 719 717 716 714 713 713 712 712 712 712 711 711
753 754 754 755 756 757 758 758 759 760 761 762 763 764 763 763 763 764 764 764 764 764 763 764 764 765 765 765 764 763 762 762 762 761 761 760 760 760 760 760 760 760 760 759 759 758 757 756 755 754 752 751 750 749 748 746 745 743 741 740 738 736 734 733 731 730 729 729 728 727 726 724 723 721 720 718 717 716 715 714 714 713 713 713 713
753 754 755 756 757 758 758 759 760 761 761 763 764 764 764 764 764 764 765 765 765 765 765 765 766 767 767 766 765 764 763 764 764 764 763 763 763 762 762 762 762 762 761 761 761 760 759 758 757 756 754 753 752 750 749 748 747 746 744 743 741 739 738 736 735 733 732 732 731 730 729 727 725 724 723 721 720 719 718 717 716 715 715 714 714
754 755 756 757 757 758 758 759 760 761 762 763 764 765 765 765 764 765 765 765 765 766 767 767 768 768 768 767 766 765 765 766 766 766 765 765 765 765 764 764 764 763 763 763 762 761 761 760 759 758 756 755 754 753 751 750 749 747 746 745 744 742 741 739 738 737 736 735 734 733 732 731 729 727 726 724 722 721 720 719 718 716 716 715 715
755 756 757 757 758 759 759 761 761 762 763 764 764 765 765 765 764 765 765 765 766 767 768 769 769 769 769 768 767 767 767 767 767 767 767 767 767 766 765 765 765 764 764 764 763 762 762 761 760 759 758 757 756 755 753 752 751 749 749 748 746 745 744 743 741 740 739 738 737 736 735 734 732 731 729 727 725 724 723 721 720 719 717 717 716
756 757 757 758 760 760 761 762 762 763 763 764 764 765 765 765 765 765 765 765 766 767 768 769 769 769 770 769 769 769 769 769 769 769 769 769 769 768 767 767 766 765 765 765 764 763 763 762 761 760 759 758 757 756 756 755 753 752 751 749 748 747 746 745 744 742 741 740 739 739 738 737 735 734 732 730 729 727 726 725 723 721 720 719 718
757 758 759 759 760 761 762 762 763 764 764 764 765 765 765 765 765 765 765 765 766 767 768 769 769 770 770 770 770 770 770 770 770 770 770 770 770 769 769 768 767 767 766 765 764 764 763 762 762 761 760 760 759 758 757 757 755 754 753 752 750 749 747 746 746 745 744 743 742 741 740 739 738 736 735 733 732 730 729 728 726 724 723 722 721
757 758 758 759 760 761 762 762 763 763 763 764 764 765 766 766 765 765 765 766 767 768 769 769 769 770 770 770 770 770 770 771 771 771 771 771 771 770 770 770 769 768 767 766 765 765 764 763 763 762 761 761 760 759 759 758 757 756 755 754 753 751 750 749 748 747 746 745 744 743 742 741 740 739 737 735 734 733 732 730 729 728 726 725 723
757 757 758 759 760 761 762 762 762 763 763 763 763 763 764 766 766 766 766 767 767 768 768 769 770 770 770 770 771 771 771 771 772 772 771 771 771 771 772 771 769 769 768 767 767 766 765 764 764 763 762 762 761 761 760 760 759 758 757 755 754 753 752 750 749 749 748 747 746 745 744 743 742 741 739 738 736 735 734 732 731 730 729 728 726
758 758 758 759 760 761 762 762 763 763 763 763 763 762 763 765 766 766 766 767 767 767 768 768 769 770 770 770 771 771 771 771 771 771 771 771 771 771 772 771 770 769 769 768 768 767 766 766 765 764 763 763 762 762 762 761 760 760 758 756 755 754 752 751 750 750 749 748 748 747 746 744 743 742 741 740 738 737 736 734 733 732 731 730 729
758 758 759 759 760 761 761 762 762 763 763 763 763 763 763 764 766 766 766 766 767 767 767 769 769 769 769 770 770 770 770 770 770 770 770 770 771 771 771 770 770 770 769 769 769 768 767 767 766 765 765 764 763 763 763 762 761 761 760 758 756 755 753 752 751 750 749 749 749 749 747 746 745 744 742 741 740 739 738 737 736 734 733 732 731
758 758 758 759 760 760 761 761 761 761 761 762 763 762 762 763 764 765 765 766 766 767 767 768 769 769 769 769 769 769 770 770 770 770 770 770 770 770 770 770 770 770 769 769 769 769 768 768 767 767 766 766 765 764 764 763 762 761 760 759 757 756 754 753 752 751 749 749 750 750 749 747 747 746 744 743 742 741 740 739 738 737 736 735 734
758 757 758 759 759 759 760 760 760 760 760 761 761 761 762 762 763 764 765 765 766 766 767 767 768 768 768 769 769 770 770 770 770 770 770 770 770 770 770 770 770 769 769 769 769 769 769 769 768 768 767 767 766 766 766 765 763 762 761 759 758 757 755 754 753 752 750 749 750 751 750 749 748 747 746 745 744 743 742 741 740 739 738 738 737
757 757 757 758 758 758 759 760 760 760 761 760 760 761 761 762 762 763 764 765 765 765 766 767 767 767 768 768 769 770 770 770 770 770 770 770 770 770 770 770 769 769 769 769 769 769 769 769 768 768 768 768 767 767 767 765 764 763 761 760 758 757 756 755 754 753 752 751 751 752 751 750 749 748 747 746 746 745 744 743 742 741 740 739 739
Wind_Speed
6 5 5 5 5 5 5 5 5 5 5 6 6 6 6 6 7 7 8 8 8 9 10 11 12 13 14 14 15 16 15 15 14 14 12 12 13 14 15 17 19 19 19 21 23 25 27 28 29 30 31 30 30 32 31 29 30 32 32 32 31 30 30 26 16 13 19 23 24 26 23 18 15 14 14 14 15 17 19 18 19 20 20 20 19
7 6 6 6 6 6 6 6 6 6 7 7 7 7 7 7 8 8 9 9 9 10 10 11 12 13 15 15 15 15 16 14 13 13 13 13 15 15 15 18 22 22 23 23 24 27 28 29 31 32 31 31 31 31 30 29 27 28 30 31 32 31 28 27 21 15 16 21 24 26 25 23 20 18 18 17 16 19 21 21 20 20 21 20 17
8 7 7 7 7 7 7 6 7 7 7 8 7 7 8 8 8 9 10 10 10 11 11 12 13 13 14 15 13 13 14 14 13 13 12 13 14 15 17 19 22 24 25 25 26 28 28 28 30 32 31 30 30 29 29 29 27 27 29 29 31 33 31 27 25 20 19 22 23 23 23 24 24 23 23 20 19 20 22 23 23 20 20 20 17
8 8 8 8 8 8 8 7 8 8 8 8 7 8 9 9 9 10 11 12 12 12 13 13 14 14 13 13 12 12 13 13 14 13 12 12 13 14 16 18 21 24 26 26 28 28 28 28 30 32 32 31 30 28 25 26 27 27 28 29 30 33 31 26 24 23 22 23 23 21 22 23 23 23 22 19 18 20 22 23 22 20 20 19 17
9 8 8 9 9 9 9 8 8 8 8 8 8 8 9 10 11 11 11 12 13 14 14 15 15 14 13 12 12 12 12 12 12 12 13 12 12 13 15 16 20 24 25 26 29 29 29 29 29 30 33 33 33 29 24 24 28 28 28 29 29 30 28 24 22 23 22 22 22 22 22 22 22 22 21 17 15 18 22 24 23 21 21 20 18
9 9 9 9 9 9 9 9 8 8 8 8 8 9 10 11 11 12 12 13 14 15 15 16 15 14 14 13 13 13 12 11 11 11 11 12 12 13 14 16 21 24 24 26 28 29 29 29 29 29 30 33 36 34 29 25 25 27 29 31 30 29 29 27 24 23 23 22 22 22 24 24 22 22 22 20 18 19 20 19 21 23 23 20 17
10 10 9 9 9 9 9 9 8 8 8 8 9 10 11 12 12 13 14 14 15 16 16 17 17 16 15 14 14 13 12 11 11 10 10 10 12 13 14 16 20 23 23 25 26 26 27 28 29 28 28 32 36 35 31 27 22 24 30 32 31 30 29 27 25 23 23 23 23 24 25 24 23 22 21 19 19 21 20 16 16 20 23 20 17
11 10 10 10 10 10 9 8 8 8 9 9 10 12 13 13 14 14 15 15 16 17 17 17 17 17 16 15 14 13 12 12 11 9 9 9 11 13 15 16 19 21 22 24 25 24 25 28 28 28 29 33 34 31 26 24 22 23 27 30 31 31 29 30 28 24 23 23 23 23 23 23 23 21 19 17 17 20 20 16 14 17 20 21 19
12 11 11 11 11 10 9 9 8 8 9 9 11 13 13 13 14 14 15 16 16 16 17 17 17 17 16 15 14 13 13 12 11 9 8 9 10 13 15 15 18 20 21 23 25 24 25 28 30 30 31 32 32 29 24 22 22 23 27 28 29 29 29 30 28 24 23 22 22 23 23 23 23 21 18 19 18 19 20 18 15 16 20 21 19
13 12 11 12 11 10 10 9 9 9 10 10 12 13 14 14 13 13 15 16 15 15 15 15 16 15 15 15 13 12 11 10 11 11 9 8 11 14 15 15 16 18 20 21 23 24 25 28 31 32 30 31 32 30 27 25 23 23 27 30 31 30 28 28 28 24 22 22 22 23 21 21 24 24 21 21 21 19 19 19 18 18 19 17 15
14 13 12 12 12 11 10 10 11 11 11 12 13 14 14 14 13 14 15 15 14 14 14 14 14 14 14 13 11 10 10 10 12 12 9 8 12 14 14 14 14 15 18 20 21 23 26 28 31 31 30 31 31 29 29 30 27 23 24 28 32 33 28 26 28 26 22 21 23 24 22 22 25 25 24 23 22 21 20 20 19 18 15 13 11
14 13 13 13 12 11 11 12 12 12 12 13 14 14 14 14 14 15 15 14 12 13 13 13 13 13 12 12 11 10 10 11 13 12 9 9 12 14 14 13 13 13 15 18 19 21 24 29 30 29 28 30 29 28 30 32 30 28 27 25 28 34 35 33 31 28 24 24 24 24 25 25 25 25 25 24 22 22 22 22 23 22 18 16 14
14 13 13 13 12 11 12 12 12 13 13 14 14 15 14 14 14 15 14 12 12 13 13 13 13 12 11 10 10 11 10 10 12 11 9 10 12 12 13 12 12 12 13 15 17 18 21 26 29 27 27 29 28 28 31 32 30 31 30 27 26 31 38 41 39 35 31 28 26 25 27 27 26 25 25 24 23 23 23 22 24 24 20 17 16
14 13 13 12 12 12 12 12 13 13 14 14 14 13 13 13 13 14 13 12 12 13 13 13 13 11 11 11 11 11 9 9 11 11 10 10 10 11 12 11 11 12 12 13 17 19 20 22 26 27 27 27 26 27 31 32 30 30 30 29 26 27 33 40 44 44 40 35 31 29 29 29 29 27 25 25 24 23 22 21 20 20 20 21 23
14 14 13 12 12 12 12 12 13 13 13 13 13 12 12 12 12 12 12 12 13 13 13 14 13 12 11 11 12 12 10 10 11 11 11 10 10 10 11 11 11 12 11 13 17 21 21 21 23 26 28 28 27 30 34 35 32 30 29 29 28 27 29 35 43 46 42 38 36 34 31 30 31 28 25 26 26 23 20 18 14 14 16 19 22
14 14 13 12 12 12 12 12 12 13 13 13 13 12 12 12 12 11 11 12 13 13 13 14 13 13 13 13 13 12 10 10 10 11 11 11 10 10 12 12 12 12 12 14 18 21 22 22 23 24 26 28 30 32 36 37 34 30 29 30 30 28 29 33 39 44 42 39 39 38 35 32 32 29 26 25 25 23 20 18 14 11 11 10 14
15 14 13 12 11 11 11 11 12 13 13 12 12 11 11 12 12 11 11 13 13 13 13 14 13 13 16 18 18 17 14 11 10 11 11 11 11 12 13 13 13 13 13 15 20 22 21 22 22 21 23 26 30 34 36 37 34 30 29 31 31 29 29 30 34 40 43 41 40 40 38 36 32 29 28 27 24 21 20 19 17 14 12 9 9
15 13 12 12 11 11 10 11 12 12 12 12 12 12 11 11 12 11 11 14 15 12 13 15 16 15 15 17 19 21 19 16 11 9 10 11 12 14 14 14 15 14 13 16 22 24 22 22 23 22 23 26 30 34 36 36 36 33 30 31 32 29 26 28 29 34 40 42 43 42 42 41 37 31 29 30 29 26 22 21 20 19 16 13 11
14 13 12 12 11 10 10 10 11 11 11 12 12 10 8 9 11 10 10 12 13 12 13 15 17 19 19 20 20 21 21 18 12 9 10 11 12 14 15 15 16 16 14 18 23 25 23 23 24 24 25 26 28 31 33 35 37 35 32 32 32 29 25 25 28 30 33 36 40 42 40 41 41 38 33 30 29 30 29 25 23 22 20 18 17
14 13 12 11 10 9 9 10 11 10 11 11 9 6 5 7 9 9 9 10 9 9 10 11 14 18 21 21 21 21 21 19 13 11 11 10 11 14 15 15 16 17 15 17 22 24 23 24 25 24 23 23 26 29 32 34 35 33 34 35 35 34 28 24 28 29 29 30 33 35 35 36 38 39 38 36 34 33 33 30 26 23 21 21 21
14 13 12 9 8 9 9 10 10 10 10 10 7 3 4 7 8 8 8 8 6 7 8 8 10 15 18 19 20 21 21 19 15 13 12 10 10 13 15 15 16 16 16 17 20 21 22 22 22 22 21 22 25 28 31 33 33 33 37 39 40 40 29 19 27 27 26 30 31 32 31 32 33 35 37 39 39 35 32 31 29 25 24 24 23
14 11 9 6 6 7 8 9 10 9 10 10 7 4 4 8 10 9 8 6 5 6 7 7 9 12 15 17 18 19 22 21 16 13 12 10 9 11 12 13 15 15 17 17 18 20 20 21 20 19 20 22 23 25 28 32 34 35 38 41 42 42 32 9 22 27 27 28 29 29 31 31 32 35 36 35 37 38 36 34 32 28 27 28 26
10 8 7 5 5 7 8 8 9 8 8 8 7 5 6 9 10 10 8 6 6 6 7 8 9 11 13 15 15 18 21 18 12 11 11 10 9 10 11 13 15 15 16 16 17 19 19 19 19 18 18 19 20 21 25 31 35 36 39 41 40 40 38 25 3 19 28 29 26 24 27 29 29 29 32 32 32 34 34 32 31 29 27 28 27
9 7 6 5 5 6 7 7 7 7 7 7 7 7 8 9 10 8 8 8 8 7 7 7 9 11 12 13 15 19 19 13 9 10 11 11 11 10 10 12 15 16 16 16 18 18 17 18 18 16 15 17 16 17 21 26 32 35 37 39 38 36 38 37 29 14 2 11 19 20 21 28 30 27 28 31 28 27 28 27 26 26 26 26 25
9 7 6 5 5 5 6 5 4 5 5 6 7 7 8 9 10 9 9 10 9 9 8 7 9 12 12 10 13 17 17 11 9 9 9 12 13 11 10 11 13 14 16 17 17 16 15 17 15 12 12 14 14 15 17 21 27 32 34 35 35 35 35 35 34 33 31 20 7 3 3 12 26 29 29 30 28 28 29 27 23 25 27 25 23
9 8 6 5 4 3 4 3 3 3 4 6 7 7 8 9 9 9 9 11 10 10 9 8 9 11 11 10 12 15 13 10 8 9 11 13 13 11 10 10 11 13 15 15 15 15 15 15 12 9 9 12 13 14 15 17 21 27 31 31 32 33 34 34 31 28 29 28 23 23 25 17 3 13 20 24 25 26 29 26 22 25 27 23 18
8 7 5 4 4 3 1 1 3 4 5 6 7 8 8 9 10 10 11 12 11 10 10 9 9 10 9 10 12 14 11 7 7 11 16 16 14 12 11 9 10 13 14 13 14 15 14 13 10 9 9 11 13 15 16 18 20 23 27 29 31 32 32 32 30 27 27 28 27 26 29 29 23 14 9 11 13 17 23 27 25 23 24 20 15
7 5 4 4 4 3 2 2 3 5 6 6 8 10 8 8 10 12 12 11 9 9 10 9 8 9 9 9 11 13 10 8 10 15 19 18 16 14 11 9 10 11 13 14 15 15 12 9 7 8 10 11 13 16 18 19 21 22 23 26 29 31 32 32 31 30 30 30 27 27 29 30 28 24 19 13 10 8 13 19 18 17 19 19 15
4 3 3 5 5 5 5 5 6 6 7 8 9 9 8 9 11 12 11 10 10 10 10 9 7 7 8 8 9 9 9 10 13 17 18 16 14 11 10 10 10 10 11 13 14 13 11 8 8 9 10 11 13 15 17 19 21 21 21 24 26 27 29 30 30 30 31 30 27 27 29 29 28 26 24 22 19 14 11 12 11 12 15 16 13
3 3 5 6 7 7 6 7 7 6 8 9 8 6 7 10 13 11 8 9 10 9 7 6 4 4 4 4 6 7 8 10 14 16 15 11 7 6 8 10 9 9 10 11 10 10 10 9 11 11 12 12 13 14 15 17 18 20 21 22 23 24 24 25 26 27 29 30 29 28 28 28 28 27 26 26 26 24 19 16 15 15 17 16 14
4 6 7 6 6 6 8 9 8 7 7 7 7 6 4 5 7 6 5 6 5 3 1 1 2 3 4 3 4 7 9 11 12 12 10 6 5 8 10 10 8 7 7 7 7 8 10 11 11 12 12 12 13 14 15 16 17 18 20 20 21 23 23 22 23 24 26 28 27 27 28 27 26 27 26 25 25 26 26 25 22 21 22 21 18
6 7 7 6 4 5 8 8 6 7 6 6 7 7 3 1 1 2 2 2 1 3 4 5 7 7 7 7 6 8 11 12 11 9 5 3 4 8 10 10 7 4 6 9 10 11 13 12 12 13 13 13 14 15 15 16 17 17 18 19 22 23 22 21 20 21 23 23 23 23 25 26 25 25 25 25 25 24 23 24 23 21 22 22 20
4 5 5 5 5 6 7 6 5 6 6 5 5 4 4 6 8 8 7 6 7 7 5 6 7 8 8 10 10 10 12 13 11 9 5 2 2 6 11 13 11 9 11 14 14 13 14 14 13 14 14 14 14 15 15 15 16 16 16 17 19 21 22 21 20 21 21 21 20 19 21 23 23 23 23 24 24 22 21 20 19 19 19 19 19
4 4 5 6 6 6 6 5 5 5 4 4 4 2 3 9 13 15 13 9 8 8 6 5 7 7 8 10 11 12 12 12 12 10 7 3 3 7 11 12 13 15 17 17 15 14 14 14 15 15 14 14 14 15 15 15 16 16 16 16 17 21 24 24 23 22 21 22 22 21 20 20 20 20 21 21 21 21 20 19 18 17 16 16 16
5 6 6 6 6 6 5 4 4 4 3 2 3 2 1 4 8 12 12 9 7 7 6 5 5 6 7 9 11 12 12 13 12 11 10 9 9 9 9 10 13 16 18 16 15 14 14 14 14 14 14 14 14 14 15 16 16 16 17 17 18 20 23 24 22 21 20 21 22 22 22 21 18 16 16 17 18 18 17 16 15 14 14 15 15
7 6 6 7 6 5 3 2 2 2 1 1 1 1 3 4 5 6 6 4 4 3 2 3 3 4 7 9 9 10 12 14 15 14 15 15 15 13 11 11 13 14 15 14 14 13 14 14 14 14 14 14 14 14 14 15 16 16 16 17 18 19 20 21 21 20 18 18 19 20 21 22 20 17 15 13 14 15 15 14 12 11 11 12 12
6 6 6 6 5 4 3 2 2 3 3 3 3 5 7 7 7 6 5 3 2 2 2 2 2 2 6 8 8 8 10 12 15 16 17 18 18 17 15 14 14 14 14 14 13 13 14 15 14 14 14 14 14 14 14 15 15 16 16 16 17 19 20 20 21 21 19 19 19 19 19 19 19 17 15 13 12 13 13 12 10 9 7 7 7
4 4 4 5 5 4 4 3 4 5 5 6 6 7 9 10 9 8 5 4 3 3 3 4 3 4 6 7 7 6 7 8 11 13 15 16 17 16 15 15 15 14 13 12 12 12 12 12 12 13 14 15 15 15 15 15 15 16 17 16 16 17 19 20 20 21 20 20 20 20 19 18 17 16 15 15 15 14 12 10 8 6 5 4 3
0 1 4 6 5 4 5 6 7 7 8 8 8 8 9 11 10 8 5 5 5 5 5 5 5 6 7 8 7 6 5 6 8 9 11 13 13 13 13 14 14 13 11 10 10 10 10 10 11 12 13 15 15 16 16 16 16 17 17 17 16 17 19 20 20 20 20 19 19 20 20 19 18 16 15 15 15 15 13 11 9 6 4 3 2
1 2 4 5 5 5 7 8 10 10 11 10 8 7 7 8 9 7 5 4 5 5 5 5 6 7 8 8 8 7 6 7 8 9 10 11 12 11 11 11 10 9 9 9 9 9 9 9 9 11 12 14 15 16 17 17 17 16 17 17 17 17 18 19 19 20 19 19 19 19 19 20 20 19 17 16 15 14 12 11 9 7 5 3 2
2 4 5 6 7 8 9 10 11 12 12 10 8 7 6 6 6 5 3 3 4 4 4 5 6 7 7 8 9 9 8 8 8 9 10 11 10 10 10 10 9 8 9 9 9 8 9 9 9 10 11 12 12 13 15 16 16 16 16 16 16 16 17 18 19 19 18 18 19 19 19 19 18 18 19 19 17 15 13 13 11 9 7 5 2
5 6 7 8 8 9 10 11 12 11 10 8 7 6 5 4 3 2 2 1 2 2 3 4 5 6 7 9 10 10 9 9 8 9 10 9 8 8 8 8 8 8 8 8 9 8 8 9 9 10 11 12 12 12 13 14 15 15 15 15 15 16 15 16 17 18 17 17 17 18 19 19 18 17 18 19 18 17 16 16 15 14 12 9 6
7 7 8 8 8 8 9 11 11 9 7 6 5 4 3 1 1 0 0 0 1 1 2 3 4 4 6 8 9 8 7 8 8 8 9 8 7 7 8 8 8 8 8 8 9 9 8 9 9 10 10 11 12 12 12 13 13 14 15 15 16 16 16 15 16 17 17 16 16 16 16 16 16 15 15 16 17 16 16 16 16 15 16 14 11
7 8 8 8 7 8 8 8 8 6 6 5 4 3 2 2 2 1 1 1 1 2 2 2 2 2 3 5 6 6 6 7 7 7 7 6 5 6 7 7 7 8 8 8 9 9 9 9 10 10 10 10 11 11 12 12 13 14 14 15 15 16 17 17 16 16 16 16 16 15 15 15 15 14 14 14 15 15 15 15 16 16 16 15 14
6 7 7 7 6 7 7 6 6 6 5 5 4 4 3 3 3 2 2 2 3 4 3 3 3 3 4 4 4 5 6 6 5 5 5 4 4 5 5 5 5 6 7 7 8 9 9 9 9 10 10 10 11 11 11 12 12 13 14 15 15 15 16 16 16 15 15 15 14 14 14 14 13 14 15 14 14 13 13 14 15 15 15 15 14
5 5 6 7 7 7 6 6 6 6 5 5 5 4 4 4 3 4 4 4 5 5 4 4 4 4 4 4 3 3 3 3 3 3 3 3 3 4 4 4 4 5 6 6 7 8 9 9 10 10 10 10 10 11 11 11 12 13 14 15 16 15 15 15 15 14 13 13 13 14 14 13 12 13 14 14 13 13 13 13 13 14 14 15 15
4 5 5 6 6 7 6 6 6 6 5 5 4 4 4 4 5 5 5 6 6 6 5 4 4 4 3 3 3 3 2 2 1 1 1 1 2 2 3 3 3 4 5 6 7 8 8 9 9 10 9 10 10 10 10 11 11 12 13 15 17 18 17 17 15 13 11 11 12 12 13 12 12 12 13 13 12 12 12 12 13 13 14 14 15
4 4 5 5 6 6 6 6 6 6 5 5 5 4 5 6 6 6 6 7 6 6 6 5 4 4 3 2 2 1 0 0 1 1 1 1 1 1 2 3 3 4 4 5 6 7 8 8 9 9 9 9 9 9 9 10 11 11 12 14 17 17 17 17 15 13 11 11 11 11 11 12 11 12 12 13 12 12 12 12 12 12 13 13 14
3 4 4 4 4 4 4 5 5 5 4 4 5 5 6 6 6 6 7 7 7 6 6 5 5 4 3 3 2 1 0 0 0 1 1 1 2 2 3 3 3 3 4 5 5 6 6 7 8 8 8 8 8 8 9 9 10 10 12 15 16 16 16 16 15 13 12 11 11 11 10 11 11 11 11 12 12 12 12 12 11 11 11 11 13
3 3 4 3 3 3 3 4 4 4 4 4 5 5 6 6 6 6 7 7 7 7 6 5 5 4 3 3 2 1 0 0 0 1 2 2 2 2 3 3 3 3 4 4 5 5 5 6 7 7 8 8 7 8 8 8 9 11 13 15 17 16 15 15 15 13 12 11 10 11 11 10 10 11 11 11 11 11 12 12 12 11 10 11 11
3 3 4 3 3 3 3 3 3 3 4 4 5 6 6 6 6 7 7 6 6 6 6 5 5 4 3 2 2 1 0 0 1 1 1 2 2 2 2 2 3 3 3 3 4 4 4 5 5 6 7 7 6 6 7 8 9 10 12 15 16 16 15 15 14 13 14 14 11 10 10 10 10 10 11 12 11 11 10 11 11 10 9 10 10
Wind_Direction
235 247 250 244 240 237 234 234 237 246 260 273 282 288 293 300 312 317 312 307 302 298 296 294 292 291 291 292 294 299 306 309 308 305 300 300 308 309 310 315 316 316 313 309 305 300 295 290 285 279 276 270 262 259 254 248 245 244 242 240 240 238 232 226 231 247 246 245 249 251 252 253 244 234 233 231 230 238 243 238 232 228 227 229 231
234 242 245 241 238 237 238 239 242 250 262 271 278 283 289 295 301 306 307 306 303 298 295 293 291 289 287 287 288 291 299 304 305 304 303 306 311 313 314 315 314 315 316 314 309 304 300 295 289 285 279 271 265 262 257 249 245 245 244 240 238 239 234 224 223 236 246 243 242 246 249 249 248 246 242 236 232 237 239 237 232 227 225 221 218
234 237 239 240 237 235 237 241 246 252 261 270 279 287 294 299 299 300 302 303 301 295 291 289 288 287 286 285 283 283 291 299 304 305 305 309 313 312 311 310 311 315 317 315 312 308 305 300 294 291 285 275 267 263 256 250 246 244 244 239 235 237 233 222 218 225 237 240 238 242 245 243 244 245 244 240 237 238 235 232 230 225 219 213 211
239 239 240 241 237 235 238 241 246 252 260 270 279 287 299 308 309 305 303 302 300 295 291 287 284 282 282 283 281 282 287 294 302 306 308 312 312 309 307 305 308 316 318 316 315 312 308 304 300 297 293 283 272 262 255 251 247 243 244 242 238 238 235 223 216 223 235 240 238 238 242 243 242 242 242 238 235 236 232 227 224 220 216 214 212
241 243 246 246 240 238 242 244 248 254 260 271 281 292 305 313 312 309 305 301 299 295 292 289 283 277 275 278 279 281 284 288 295 304 309 311 309 307 307 305 310 319 321 317 316 316 313 309 305 302 298 292 280 266 255 253 251 246 244 243 238 238 236 227 219 223 231 238 241 240 241 243 241 239 238 233 229 233 231 229 227 222 218 216 212
241 246 251 252 245 244 247 247 251 257 262 272 283 292 301 305 307 309 309 306 301 297 293 291 286 279 273 275 278 278 278 280 286 295 303 308 310 311 310 310 316 323 323 319 318 319 320 318 312 307 301 299 294 280 261 254 255 252 246 243 239 237 237 232 225 225 230 234 239 241 241 239 238 236 234 230 229 232 229 224 225 224 222 218 209
236 243 252 254 250 250 252 250 254 262 268 274 282 289 294 301 308 310 308 305 302 300 296 292 289 283 277 277 279 277 274 275 280 285 294 305 312 315 316 317 322 326 325 323 324 325 327 325 318 313 307 307 310 299 274 256 253 252 249 245 239 236 238 235 227 223 228 232 235 238 240 237 234 233 233 228 227 232 231 221 218 224 228 226 212
232 239 247 250 250 253 256 253 256 263 268 274 282 285 291 301 307 305 303 302 301 300 298 294 290 287 284 282 280 278 276 276 276 276 288 304 313 318 321 322 324 327 327 329 332 332 332 331 327 321 316 316 322 322 301 276 264 259 256 251 241 234 234 236 232 225 223 225 228 231 234 235 232 230 230 224 216 221 226 225 221 221 225 228 222
230 237 242 245 249 255 255 252 256 262 267 275 282 285 294 303 302 300 302 301 300 299 298 296 291 286 286 286 281 278 280 276 271 274 289 306 316 321 322 321 323 328 330 332 336 337 336 338 337 332 327 327 334 341 332 310 293 279 268 258 244 233 231 233 233 230 224 222 224 225 229 233 230 225 221 216 213 217 218 218 222 223 223 226 225
227 234 239 243 250 255 252 250 256 263 270 278 283 289 301 304 298 300 305 302 299 300 299 296 293 290 291 292 287 282 281 268 261 274 292 309 321 323 321 318 319 328 334 334 336 338 338 340 343 340 337 338 343 347 343 333 320 297 279 266 250 237 234 234 232 229 225 225 227 227 228 232 229 225 222 218 220 226 221 214 218 224 224 224 224
225 231 238 243 249 254 253 252 258 266 273 279 282 292 302 301 299 304 306 302 300 300 299 297 296 296 296 297 293 288 282 267 265 278 291 306 321 323 318 315 315 321 334 339 338 340 340 341 345 346 345 344 344 343 338 335 332 318 298 280 259 243 233 232 232 228 223 225 229 226 226 231 229 225 226 226 226 226 223 218 216 217 220 219 222
226 231 236 243 249 253 255 256 261 270 277 280 283 293 301 299 302 307 304 302 302 301 300 300 299 300 300 301 300 295 287 276 276 281 285 298 317 322 314 310 310 312 325 335 338 341 343 344 344 343 345 347 345 339 335 332 330 324 315 300 274 252 238 234 235 233 225 225 229 228 226 230 230 226 226 228 227 225 227 223 213 211 219 221 218
227 232 237 245 250 255 259 260 266 272 278 282 284 292 300 302 307 310 306 302 302 301 301 301 300 300 299 299 300 300 296 290 287 285 285 296 315 322 313 303 303 308 314 323 331 335 339 345 345 339 338 345 345 341 337 332 327 323 318 309 289 263 247 241 238 237 234 231 229 228 227 228 230 229 226 226 228 229 230 224 210 205 213 221 221
228 232 239 246 250 256 261 264 270 274 278 282 283 288 298 303 307 311 309 305 303 301 301 303 301 299 298 298 300 302 302 300 297 290 289 300 313 319 312 299 296 303 306 314 327 332 333 338 342 339 337 340 342 341 340 334 326 320 314 306 291 270 255 246 240 238 237 235 232 229 226 227 231 231 226 224 226 226 225 224 213 203 210 223 227
227 232 239 247 251 257 264 269 274 276 278 279 279 283 293 299 304 310 310 309 307 304 302 302 298 294 293 292 295 302 309 311 305 292 288 298 309 311 305 297 295 299 298 306 326 335 333 327 328 333 336 338 339 339 339 337 329 319 314 307 294 276 259 246 238 234 232 231 232 231 229 229 232 232 228 226 225 223 223 228 219 201 211 228 230
227 231 239 247 254 260 266 273 277 278 278 276 275 281 290 296 301 304 304 307 310 307 305 304 303 302 302 300 296 295 299 305 305 296 289 293 297 299 300 296 296 298 297 303 320 333 337 330 324 325 329 333 337 337 338 339 332 322 317 314 304 286 265 248 238 232 228 226 229 231 232 233 234 233 230 229 227 223 224 227 217 200 207 229 233
225 231 239 249 258 263 267 275 280 280 279 276 275 280 287 293 298 302 306 309 307 308 313 317 320 318 313 310 307 301 297 299 302 296 291 291 290 292 298 298 297 298 296 300 313 324 331 332 329 323 322 328 334 335 337 338 332 325 323 320 312 296 273 254 240 232 228 227 227 228 228 230 232 232 230 229 227 224 225 226 218 208 206 214 234
225 232 242 251 258 263 266 272 278 279 277 274 275 281 287 295 302 308 314 313 309 317 328 328 324 320 314 307 304 302 300 299 300 296 288 289 288 287 293 297 298 301 298 297 308 315 319 324 329 328 326 330 336 337 338 338 333 328 328 324 317 305 280 256 239 229 226 226 227 227 227 227 228 229 228 229 228 225 225 226 224 220 217 214 218
224 232 245 253 259 264 266 270 275 276 274 273 276 283 289 297 302 304 309 311 316 330 335 326 321 320 316 309 304 301 297 291 293 298 289 286 286 282 287 296 300 302 301 299 306 311 312 316 324 331 333 335 339 341 341 341 337 332 332 329 321 312 293 262 240 225 217 220 224 225 226 227 226 227 227 229 229 225 225 228 229 228 230 230 225
223 233 246 253 257 262 264 268 271 272 276 279 279 279 282 285 287 287 287 291 303 319 320 317 319 318 315 310 304 300 294 289 294 300 288 283 286 281 280 290 299 303 300 296 301 307 308 311 320 331 338 338 338 340 341 343 341 338 340 335 323 317 307 272 243 229 218 214 217 218 221 223 224 225 226 228 228 225 225 229 230 228 229 233 233
229 237 243 245 253 259 262 266 268 271 279 280 268 243 257 269 267 267 271 271 277 295 301 306 312 312 312 310 304 300 297 292 292 292 283 282 289 285 280 283 293 301 298 291 295 302 306 309 314 326 337 338 337 339 343 346 346 347 347 341 331 331 325 270 237 233 223 215 213 213 214 217 220 221 223 226 227 224 223 225 226 226 226 228 232
230 228 224 227 248 261 265 268 270 266 262 255 242 224 237 254 260 262 261 257 263 281 292 301 305 306 309 309 304 303 300 293 284 280 280 283 287 286 286 292 297 299 295 292 295 302 308 310 311 320 333 336 337 343 350 353 353 353 352 347 344 349 354 306 229 230 228 220 215 210 207 210 216 219 220 221 221 221 223 224 223 224 225 227 230
202 194 200 216 245 263 269 270 269 262 249 241 239 239 241 250 259 262 257 260 273 278 286 302 308 305 305 306 309 311 308 300 293 293 295 295 291 285 290 303 307 301 292 289 294 300 309 313 312 317 327 333 340 352 358 359 359 358 357 356 355 360 10 21 331 235 230 223 215 206 204 207 211 215 217 217 217 218 218 219 220 221 223 227 230
176 182 206 225 243 262 269 266 262 259 251 238 233 238 247 255 259 256 256 269 277 277 282 296 302 300 300 307 316 317 311 307 310 313 312 311 307 297 294 302 307 305 298 296 297 300 306 312 316 321 328 335 347 360 4 5 6 4 2 3 5 7 15 26 33 31 345 226 218 209 207 210 210 212 214 211 210 210 209 212 218 220 220 224 228
179 194 213 229 242 255 260 260 263 267 259 241 234 241 255 260 256 255 266 276 278 277 282 288 289 293 300 310 316 312 309 312 326 331 326 321 315 306 297 298 305 309 308 307 306 306 310 318 324 330 336 344 356 5 8 11 14 12 7 6 11 15 19 25 31 39 42 33 6 33 85 215 218 219 218 211 207 209 211 212 215 217 218 219 220
182 196 213 228 228 229 243 263 289 289 266 248 244 249 257 259 256 254 265 276 278 276 277 277 278 288 301 310 308 307 313 328 339 337 334 329 320 309 300 301 307 312 314 316 316 319 327 336 343 352 357 1 8 11 13 15 15 14 12 10 13 18 24 28 29 34 40 35 27 35 43 45 131 197 205 204 203 208 208 205 204 209 214 213 210
184 196 206 202 184 173 180 296 305 288 270 261 266 266 258 256 261 263 266 273 276 276 278 281 284 292 305 310 306 308 320 344 348 337 337 336 329 321 319 316 313 316 321 322 320 325 337 344 348 1 10 5 3 9 18 22 18 14 13 15 18 20 25 31 34 35 40 37 30 33 40 44 52 73 117 161 177 189 196 195 194 198 203 205 200
179 188 187 174 169 167 173 227 263 270 268 270 280 278 262 250 263 274 276 275 275 279 284 289 295 299 305 311 313 314 328 358 356 341 336 331 324 324 327 320 312 317 321 318 318 328 343 347 343 357 5 356 352 359 9 14 14 14 14 16 21 24 26 29 32 35 40 39 32 32 38 41 43 47 54 67 87 123 164 178 179 177 183 188 184
147 175 181 179 192 208 230 246 252 265 276 276 275 273 263 258 267 276 276 268 267 275 283 288 300 309 313 326 337 337 345 354 345 335 332 326 318 322 327 321 316 318 317 316 321 329 341 354 3 6 5 359 354 354 358 2 6 9 13 16 21 25 25 25 26 29 35 37 32 31 35 38 40 43 48 51 53 66 105 137 147 150 158 162 153
149 227 218 217 226 233 255 270 265 267 281 284 277 263 256 261 267 268 262 260 264 268 270 273 290 313 330 345 355 359 356 344 334 335 341 341 337 344 344 333 325 321 319 320 324 330 341 5 18 13 6 6 3 355 354 359 2 3 5 10 15 19 20 22 25 29 32 32 31 32 35 37 39 43 47 49 49 52 65 82 96 107 112 109 98
191 232 233 238 246 254 274 283 276 266 274 280 276 267 257 265 273 264 247 255 274 283 275 38 41 54 67 52 4 357 357 347 339 342 350 3 25 26 10 350 330 323 336 349 353 356 6 18 22 15 10 11 10 4 -0 3 5 3 3 5 9 13 14 16 23 30 30 28 28 32 35 37 40 44 46 47 48 49 53 61 67 75 79 78 73
205 232 238 237 231 244 263 272 270 270 273 271 270 270 260 209 171 169 192 197 134 92 91 84 71 61 64 67 47 19 9 2 355 351 347 355 30 33 28 20 11 14 36 38 32 24 22 22 20 17 14 13 12 9 7 9 9 8 8 7 10 16 17 16 22 34 36 29 27 32 37 38 40 44 45 45 45 46 49 55 58 60 64 66 64
221 240 238 225 216 232 250 254 256 270 280 279 276 278 251 217 188 150 129 124 114 101 89 88 85 73 60 54 46 30 18 10 4 0 349 325 17 42 38 32 32 48 54 46 37 31 28 26 25 21 17 15 12 9 8 10 10 11 13 10 11 18 24 26 32 42 45 39 33 36 41 42 42 43 44 44 44 42 44 50 56 57 59 61 61
223 237 231 225 226 238 248 254 261 272 285 284 277 273 231 215 193 167 154 151 139 124 113 98 86 75 61 49 38 29 22 16 15 19 23 33 55 55 46 35 34 44 49 45 39 34 31 29 27 22 17 15 13 10 9 8 8 10 12 10 10 18 26 31 35 37 40 41 38 37 41 43 42 42 45 47 46 42 40 43 49 55 58 61 63
237 236 224 222 233 242 247 256 269 275 278 269 263 255 202 198 184 169 167 175 176 162 149 123 82 55 47 45 36 27 24 28 33 40 52 61 61 56 51 42 37 39 41 41 38 34 30 28 25 20 15 11 11 10 9 7 7 8 8 8 8 12 19 24 26 26 29 34 34 35 39 42 42 43 46 49 50 46 40 38 42 50 57 64 69
246 237 216 211 220 230 236 245 255 257 245 204 184 136 125 126 125 132 145 162 179 177 150 115 96 56 40 40 37 25 22 31 41 47 54 60 59 52 47 45 42 40 40 38 36 33 29 26 22 16 12 9 7 7 5 4 5 7 7 8 9 10 13 16 17 17 22 26 26 27 31 34 35 38 40 45 53 52 46 42 44 49 59 70 75
255 247 221 208 204 200 205 217 214 199 183 166 147 126 117 110 102 100 105 111 132 125 65 57 92 58 26 25 30 25 21 28 37 41 45 50 52 52 50 47 46 45 43 39 36 36 33 29 24 19 15 14 13 10 8 7 7 7 6 7 10 12 13 16 17 17 21 25 26 25 24 23 24 26 27 31 42 48 46 45 46 48 59 74 75
265 255 212 186 179 183 186 182 178 173 161 150 143 131 118 107 97 92 89 76 65 69 58 43 33 19 8 6 12 24 26 28 33 37 38 41 45 49 51 52 51 51 47 40 38 40 39 34 29 23 20 20 21 19 16 15 14 12 10 9 11 13 13 15 16 18 22 26 25 25 24 21 18 18 18 21 27 32 34 37 39 41 46 54 51
215 226 188 172 169 177 174 164 161 158 146 138 137 132 118 109 101 93 84 72 60 52 51 49 38 24 12 2 -0 10 29 36 38 40 43 45 47 48 52 56 57 54 47 38 35 37 37 32 27 24 23 23 23 23 25 25 22 20 17 15 16 16 16 15 15 16 18 19 17 17 18 17 15 15 17 19 20 19 18 20 25 29 29 30 30
132 162 168 168 169 169 163 157 154 150 143 138 136 128 110 102 99 92 81 77 69 54 50 51 41 28 25 24 26 35 49 52 51 50 52 53 51 49 51 58 58 50 39 34 31 29 27 26 23 21 21 21 19 21 25 26 25 23 22 20 19 18 17 17 17 17 17 15 13 13 12 11 11 13 15 16 16 13 9 10 16 23 30 31 24
134 141 147 160 167 161 152 145 141 140 139 135 129 122 110 101 98 91 73 70 73 66 64 64 53 42 45 56 63 67 69 66 62 61 61 60 56 50 51 56 55 44 34 30 28 24 24 27 27 23 21 19 16 15 19 20 21 21 21 20 20 18 16 16 16 16 16 14 11 11 10 8 9 13 13 12 12 12 11 11 11 13 22 33 39
139 141 145 154 156 146 136 131 131 134 135 132 127 123 117 107 96 79 51 49 69 80 88 86 75 63 64 72 75 74 72 72 71 70 70 68 59 50 51 54 50 40 33 29 27 25 26 29 30 27 24 21 18 16 16 16 17 17 17 19 20 18 16 15 15 13 13 11 8 7 8 7 9 12 12 12 13 15 16 16 13 9 9 15 26
138 139 141 143 141 133 129 132 137 140 138 136 136 134 136 154 168 100 29 331 102 117 121 115 102 86 73 71 72 73 73 75 75 75 75 71 61 52 51 50 45 40 37 35 31 28 29 32 31 28 27 24 21 21 21 18 17 18 17 18 19 18 16 15 13 11 9 6 3 3 4 4 5 9 10 12 14 16 17 18 17 15 13 13 19
135 136 135 134 135 136 136 139 145 144 137 138 144 154 182 216 233 241 240 223 156 136 137 133 124 109 85 73 73 77 81 81 79 79 77 71 64 60 56 51 46 43 41 38 35 31 31 33 31 29 29 28 25 25 26 24 23 23 21 18 17 16 15 13 9 7 5 3 360 0 2 2 4 6 7 9 12 14 16 17 17 16 17 18 19
140 141 139 139 144 149 151 154 158 156 159 169 176 180 193 211 215 207 191 168 150 145 140 129 120 114 106 99 92 90 90 89 85 83 79 71 65 57 44 35 38 40 37 36 35 33 31 30 29 27 28 29 29 30 30 28 28 28 26 24 21 16 12 9 5 2 3 3 360 358 360 1 4 7 6 7 9 10 12 16 16 15 16 17 15
140 142 143 145 149 149 149 154 158 163 179 197 201 198 197 193 186 180 168 157 156 153 142 134 133 127 118 115 111 103 101 99 91 83 81 78 65 41 15 9 29 43 41 37 36 34 33 32 30 29 29 29 29 31 31 30 31 30 27 27 26 22 20 18 10 1 -0 2 -0 358 359 1 5 8 6 6 8 8 8 12 15 16 15 15 12
134 138 139 140 143 145 145 147 152 160 172 181 187 193 188 172 166 164 159 156 158 158 151 148 150 146 140 136 124 110 102 96 80 65 56 55 50 28 9 10 33 46 48 46 43 40 38 35 31 31 31 29 30 33 32 32 34 32 27 26 26 25 28 28 20 8 5 4 358 356 1 3 4 8 9 7 8 10 9 10 12 13 13 13 12
139 143 142 141 146 150 150 151 156 164 169 167 166 169 165 160 160 159 158 159 162 161 158 158 161 163 167 169 159 143 125 19 5 6 13 28 55 59 42 36 41 50 58 59 54 49 47 42 36 33 32 29 30 34 34 33 36 34 27 23 23 24 28 31 28 25 27 20 3 358 5 7 5 8 11 9 9 11 11 12 13 11 9 9 8
156 156 156 159 163 166 167 169 174 184 190 183 174 167 163 163 167 166 163 165 168 168 167 170 175 181 185 185 184 184 188 292 353 31 62 70 83 83 67 54 55 61 65 64 60 55 52 47 41 36 34 32 32 34 34 34 35 30 23 21 22 23 27 32 31 31 37 31 9 -0 8 12 9 9 11 9 10 12 12 12 12 10 9 9 7
178 169 167 177 193 202 196 185 180 184 192 192 181 167 159 160 167 170 170 171 173 176 179 181 181 181 179 176 176 167 118 47 15 55 78 81 82 82 76 68 66 64 62 63 59 52 50 48 43 38 37 35 33 35 36 34 29 20 17 19 20 20 26 32 33 35 45 43 19 3 7 12 11 13 15 11 11 13 13 10 9 8 9 11 10
181 173 167 173 191 207 204 193 182 180 182 179 170 162 159 160 163 167 171 174 175 178 180 182 182 181 175 169 172 180 197 320 348 58 93 98 92 86 79 68 57 49 51 55 51 44 43 42 37 34 34 33 34 39 39 28 16 11 15 21 19 15 20 29 32 38 53 54 33 7 8 13 12 14 16 13 10 11 11 9 9 8 9 11 11